QPF
0.01 0.01 0.01 0.01 0.01 0.01 0.01 0.01 0.02 0.02 0.03 0.04 0.04 0.08 0.13 0.10 0.06 0.04 0.03 0.03 0.03 0.03 0.03 0.03 0.02 0.02 0.02 0.01 0.01 0.01 0.02 0.01 0.01 0.02 0.01 0.02 0.01 0.01 0.01 0.01 0.01 0.01 0.01 0.01
0.01 0.02 0.02 0.02 0.01 0.01 0.01 0.01 0.01 0.02 0.04 0.03 0.04 0.06 0.10 0.07 0.05 0.04 0.04 0.03 0.03 0.04 0.04 0.03 0.02 0.01 0.01 0.01 0.01 0.02 0.02 0.01 0.01 0.01 0.01 0.01 0.01 0.02 0.01 0.01 0.00 0.00 0.00 0.01
0.02 0.02 0.02 0.02 0.02 0.02 0.02 0.02 0.02 0.03 0.05 0.06 0.07 0.07 0.07 0.06 0.05 0.04 0.03 0.03 0.03 0.03 0.03 0.02 0.02 0.01 0.01 0.01 0.01 0.01 0.02 0.01 0.01 0.01 0.00 0.01 0.01 0.01 0.01 0.01 0.01 0.01 0.01 0.02
0.05 0.04 0.05 0.03 0.02 0.02 0.03 0.03 0.03 0.03 0.05 0.07 0.07 0.06 0.04 0.03 0.02 0.02 0.02 0.02 0.02 0.02 0.02 0.03 0.02 0.01 0.01 0.01 0.01 0.01 0.02 0.01 0.01 0.01 0.00 0.01 0.01 0.01 0.01 0.01 0.01 0.01 0.02 0.03
0.04 0.06 0.06 0.04 0.03 0.02 0.04 0.06 0.04 0.04 0.05 0.05 0.06 0.05 0.05 0.03 0.02 0.02 0.02 0.03 0.03 0.03 0.02 0.02 0.02 0.01 0.01 0.01 0.01 0.02 0.02 0.01 0.01 0.01 0.01 0.01 0.02 0.02 0.01 0.01 0.02 0.02 0.02 0.02
0.05 0.07 0.07 0.05 0.04 0.03 0.03 0.10 0.08 0.07 0.05 0.06 0.06 0.06 0.06 0.04 0.04 0.03 0.03 0.03 0.03 0.03 0.03 0.03 0.02 0.01 0.02 0.01 0.02 0.02 0.02 0.02 0.01 0.01 0.01 0.01 0.02 0.02 0.02 0.02 0.02 0.02 0.02 0.02
0.06 0.08 0.08 0.05 0.02 0.02 0.05 0.08 0.12 0.12 0.08 0.08 0.07 0.07 0.07 0.07 0.06 0.05 0.04 0.03 0.03 0.03 0.03 0.04 0.04 0.02 0.02 0.02 0.02 0.02 0.02 0.02 0.03 0.02 0.01 0.01 0.01 0.02 0.02 0.02 0.02 0.01 0.01 0.01
0.05 0.06 0.06 0.05 0.03 0.04 0.05 0.05 0.05 0.05 0.05 0.06 0.06 0.05 0.05 0.06 0.07 0.05 0.04 0.03 0.03 0.03 0.03 0.04 0.04 0.03 0.03 0.02 0.02 0.02 0.01 0.01 0.02 0.01 0.01 0.01 0.01 0.01 0.01 0.01 0.01 0.01 0.01 0.01
0.03 0.04 0.04 0.06 0.06 0.04 0.03 0.03 0.03 0.03 0.04 0.03 0.03 0.04 0.04 0.05 0.06 0.05 0.03 0.03 0.02 0.02 0.01 0.02 0.03 0.02 0.02 0.02 0.01 0.01 0.01 0.01 0.01 0.01 0.01 0.01 0.01 0.01 0.01 0.01 0.01 0.01 0.01 0.01
0.02 0.05 0.05 0.04 0.04 0.03 0.02 0.02 0.03 0.02 0.03 0.02 0.02 0.03 0.03 0.03 0.03 0.03 0.02 0.02 0.01 0.01 0.01 0.02 0.02 0.01 0.01 0.01 0.01 0.01 0.01 0.01 0.01 0.00 0.00 0.00 0.00 0.01 0.01 0.01 0.01 0.01 0.01 0.00
0.03 0.08 0.09 0.06 0.05 0.02 0.01 0.01 0.01 0.01 0.01 0.01 0.02 0.03 0.03 0.03 0.02 0.03 0.04 0.03 0.02 0.02 0.02 0.01 0.01 0.00 0.00 0.01 0.01 0.01 0.00 0.00 0.01 0.00 0.00 0.00 0.00 0.00 0.01 0.00 0.00 0.00 0.00 0.00
0.04 0.06 0.10 0.06 0.03 0.02 0.01 0.01 0.01 0.01 0.01 0.02 0.02 0.02 0.03 0.03 0.03 0.03 0.04 0.04 0.03 0.03 0.02 0.01 0.01 0.00 0.00 0.00 0.00 0.00 0.00 0.00 0.00 0.00 0.00 0.00 0.00 0.00 0.00 0.00 0.00 0.00 0.00 0.00
0.02 0.04 0.05 0.03 0.02 0.01 0.01 0.01 0.01 0.01 0.02 0.02 0.01 0.01 0.02 0.03 0.03 0.02 0.02 0.03 0.03 0.02 0.02 0.01 0.01 0.00 0.00 0.00 0.00 0.00 0.00 0.00 0.00 0.00 0.00 0.00 0.00 0.00 0.00 0.00 0.00 0.00 0.00 0.00
0.01 0.02 0.02 0.01 0.01 0.01 0.00 0.01 0.01 0.02 0.02 0.02 0.01 0.01 0.01 0.01 0.02 0.02 0.02 0.02 0.02 0.02 0.02 0.01 0.01 0.00 0.00 0.00 0.00 0.00 0.00 0.00 0.00 0.00 0.00 0.00 0.00 0.00 0.00 0.00 0.00 0.00 0.00 0.00
0.00 0.00 0.01 0.00 0.01 0.01 0.01 0.01 0.01 0.02 0.03 0.02 0.01 0.00 0.00 0.00 0.01 0.01 0.01 0.01 0.01 0.01 0.01 0.02 0.01 0.01 0.00 0.00 0.00 0.00 0.00 0.00 0.00 0.00 0.00 0.00 0.00 0.00 0.00 0.00 0.00 0.00 0.00 0.00
0.00 0.00 0.00 0.00 0.01 0.01 0.01 0.01 0.01 0.03 0.03 0.02 0.01 0.01 0.00 0.01 0.01 0.01 0.00 0.00 0.00 0.01 0.01 0.01 0.01 0.00 0.00 0.00 0.00 0.00 0.00 0.00 0.00 0.00 0.00 0.00 0.00 0.00 0.00 0.00 0.00 0.00 0.00 0.00
0.00 0.00 0.00 0.00 0.00 0.01 0.00 0.00 0.01 0.02 0.02 0.02 0.02 0.01 0.01 0.01 0.01 0.00 0.00 0.00 0.00 0.00 0.00 0.00 0.00 0.00 0.00 0.00 0.00 0.00 0.00 0.00 0.00 0.00 0.00 0.00 0.00 0.00 0.00 0.00 0.00 0.00 0.00 0.00
0.00 0.00 0.00 0.01 0.01 0.00 0.00 0.00 0.00 0.01 0.01 0.02 0.02 0.01 0.01 0.00 0.00 0.00 0.00 0.00 0.00 0.00 0.00 0.00 0.00 0.00 0.00 0.00 0.00 0.00 0.00 0.00 0.00 0.00 0.00 0.00 0.00 0.00 0.00 0.00 0.00 0.00 0.00 0.00
0.00 0.00 0.00 0.01 0.00 0.00 0.00 0.00 0.00 0.00 0.00 0.01 0.02 0.01 0.01 0.00 0.00 0.00 0.00 0.00 0.00 0.00 0.00 0.00 0.00 0.00 0.00 0.00 0.00 0.00 0.00 0.00 0.00 0.00 0.00 0.00 0.00 0.00 0.00 0.00 0.00 0.00 0.00 0.00
0.00 0.00 0.00 0.00 0.00 0.00 0.00 0.00 0.00 0.00 0.00 0.01 0.01 0.01 0.00 0.00 0.00 0.00 0.00 0.00 0.00 0.00 0.00 0.00 0.00 0.00 0.00 0.00 0.00 0.00 0.00 0.00 0.00 0.00 0.00 0.00 0.00 0.00 0.00 0.00 0.00 0.00 0.00 0.00
0.00 0.00 0.00 0.00 0.00 0.00 0.00 0.00 0.00 0.00 0.00 0.01 0.00 0.00 0.00 0.00 0.00 0.00 0.00 0.00 0.00 0.00 0.00 0.00 0.00 0.00 0.00 0.00 0.00 0.00 0.00 0.00 0.00 0.00 0.00 0.00 0.00 0.00 0.00 0.00 0.00 0.00 0.00 0.00
0.00 0.00 0.00 0.00 0.00 0.00 0.00 0.00 0.00 0.00 0.00 0.01 0.00 0.00 0.00 0.00 0.00 0.00 0.00 0.00 0.00 0.00 0.00 0.00 0.00 0.00 0.00 0.00 0.00 0.00 0.00 0.00 0.00 0.00 0.00 0.00 0.00 0.00 0.00 0.00 0.00 0.00 0.00 0.00
0.00 0.00 0.00 0.00 0.00 0.00 0.00 0.00 0.00 0.00 0.00 0.00 0.00 0.00 0.00 0.00 0.00 0.00 0.00 0.00 0.00 0.00 0.00 0.00 0.00 0.00 0.00 0.00 0.00 0.00 0.00 0.00 0.00 0.00 0.00 0.00 0.00 0.00 0.00 0.00 0.00 0.00 0.00 0.00
0.00 0.00 0.00 0.00 0.01 0.01 0.01 0.00 0.00 0.00 0.00 0.00 0.00 0.00 0.00 0.00 0.00 0.00 0.00 0.00 0.00 0.00 0.00 0.00 0.00 0.00 0.00 0.00 0.00 0.00 0.00 0.00 0.00 0.00 0.00 0.00 0.00 0.00 0.00 0.00 0.00 0.00 0.00 0.00
0.00 0.00 0.00 0.01 0.01 0.01 0.01 0.01 0.00 0.00 0.00 0.00 0.00 0.00 0.00 0.00 0.00 0.00 0.00 0.00 0.00 0.00 0.00 0.00 0.00 0.00 0.00 0.00 0.00 0.00 0.00 0.00 0.00 0.00 0.00 0.00 0.00 0.00 0.00 0.00 0.00 0.00 0.00 0.00
0.00 0.00 0.00 0.00 0.01 0.01 0.01 0.01 0.01 0.01 0.00 0.00 0.00 0.00 0.00 0.00 0.00 0.00 0.00 0.00 0.00 0.00 0.00 0.00 0.00 0.00 0.00 0.00 0.00 0.00 0.00 0.00 0.00 0.00 0.00 0.00 0.00 0.00 0.00 0.00 0.00 0.00 0.00 0.00
0.00 0.00 0.00 0.00 0.00 0.00 0.01 0.01 0.01 0.01 0.01 0.01 0.00 0.00 0.00 0.00 0.00 0.00 0.00 0.00 0.00 0.00 0.00 0.00 0.00 0.00 0.00 0.00 0.00 0.00 0.00 0.00 0.00 0.00 0.00 0.00 0.00 0.00 0.00 0.00 0.00 0.00 0.00 0.00
MSLP
1015.25 1015.44 1015.64 1015.82 1015.95 1015.97 1015.86 1015.58 1015.13 1014.56 1013.91 1013.26 1012.70 1012.32 1012.17 1012.27 1012.63 1013.19 1013.91 1014.69 1015.46 1016.16 1016.75 1017.22 1017.58 1017.88 1018.15 1018.43 1018.75 1019.10 1019.47 1019.84 1020.16 1020.40 1020.53 1020.52 1020.40 1020.17 1019.87 1019.52 1019.17 1018.84 1018.55 1018.29
1016.11 1016.29 1016.42 1016.50 1016.48 1016.33 1016.06 1015.65 1015.13 1014.54 1013.93 1013.37 1012.94 1012.69 1012.66 1012.85 1013.25 1013.81 1014.48 1015.20 1015.89 1016.51 1017.04 1017.48 1017.84 1018.16 1018.47 1018.79 1019.14 1019.52 1019.91 1020.28 1020.58 1020.80 1020.90 1020.87 1020.73 1020.50 1020.19 1019.86 1019.51 1019.19 1018.91 1018.66
1016.86 1017.02 1017.11 1017.09 1016.96 1016.71 1016.34 1015.87 1015.33 1014.77 1014.23 1013.79 1013.48 1013.35 1013.42 1013.67 1014.09 1014.63 1015.24 1015.87 1016.47 1017.01 1017.48 1017.89 1018.24 1018.58 1018.91 1019.27 1019.65 1020.04 1020.42 1020.77 1021.04 1021.22 1021.28 1021.22 1021.05 1020.80 1020.49 1020.16 1019.83 1019.53 1019.26 1019.03
1017.47 1017.61 1017.65 1017.57 1017.37 1017.05 1016.64 1016.16 1015.65 1015.15 1014.72 1014.40 1014.22 1014.21 1014.36 1014.66 1015.08 1015.59 1016.13 1016.67 1017.19 1017.65 1018.06 1018.43 1018.78 1019.12 1019.48 1019.85 1020.24 1020.63 1020.99 1021.30 1021.53 1021.65 1021.66 1021.56 1021.36 1021.09 1020.78 1020.46 1020.15 1019.86 1019.62 1019.42
1017.96 1018.05 1018.04 1017.90 1017.65 1017.30 1016.89 1016.44 1016.00 1015.60 1015.29 1015.10 1015.05 1015.14 1015.37 1015.70 1016.12 1016.59 1017.07 1017.53 1017.97 1018.36 1018.73 1019.07 1019.40 1019.75 1020.11 1020.49 1020.88 1021.25 1021.58 1021.85 1022.02 1022.08 1022.04 1021.90 1021.67 1021.39 1021.08 1020.77 1020.48 1020.23 1020.01 1019.84
1018.31 1018.35 1018.27 1018.08 1017.80 1017.45 1017.06 1016.66 1016.31 1016.03 1015.85 1015.78 1015.85 1016.04 1016.33 1016.69 1017.11 1017.54 1017.96 1018.36 1018.73 1019.07 1019.39 1019.71 1020.03 1020.38 1020.74 1021.12 1021.49 1021.84 1022.13 1022.35 1022.48 1022.50 1022.41 1022.24 1022.00 1021.71 1021.41 1021.12 1020.86 1020.63 1020.45 1020.31
1018.54 1018.50 1018.36 1018.13 1017.83 1017.49 1017.14 1016.82 1016.57 1016.40 1016.34 1016.39 1016.56 1016.83 1017.17 1017.55 1017.96 1018.36 1018.73 1019.08 1019.40 1019.69 1019.98 1020.27 1020.59 1020.92 1021.28 1021.65 1022.00 1022.32 1022.59 1022.77 1022.86 1022.85 1022.75 1022.57 1022.33 1022.06 1021.78 1021.52 1021.29 1021.10 1020.94 1020.82
1018.64 1018.53 1018.33 1018.07 1017.77 1017.46 1017.17 1016.93 1016.78 1016.72 1016.76 1016.91 1017.16 1017.49 1017.86 1018.25 1018.64 1019.01 1019.34 1019.64 1019.92 1020.17 1020.43 1020.71 1021.00 1021.32 1021.67 1022.02 1022.35 1022.66 1022.90 1023.06 1023.14 1023.13 1023.03 1022.87 1022.65 1022.42 1022.18 1021.96 1021.76 1021.60 1021.48 1021.38
1018.61 1018.43 1018.21 1017.94 1017.66 1017.40 1017.18 1017.04 1016.97 1017.01 1017.14 1017.37 1017.67 1018.03 1018.41 1018.79 1019.15 1019.48 1019.78 1020.04 1020.27 1020.50 1020.73 1020.98 1021.25 1021.56 1021.88 1022.21 1022.53 1022.82 1023.05 1023.22 1023.31 1023.32 1023.25 1023.13 1022.97 1022.78 1022.59 1022.42 1022.26 1022.13 1022.03 1021.95
1018.42 1018.22 1018.00 1017.76 1017.54 1017.35 1017.22 1017.17 1017.20 1017.32 1017.52 1017.79 1018.12 1018.48 1018.85 1019.20 1019.53 1019.82 1020.07 1020.29 1020.49 1020.69 1020.89 1021.11 1021.36 1021.64 1021.94 1022.25 1022.56 1022.84 1023.07 1023.25 1023.37 1023.42 1023.41 1023.35 1023.25 1023.13 1023.00 1022.87 1022.76 1022.65 1022.57 1022.49
1018.08 1017.90 1017.71 1017.55 1017.41 1017.33 1017.31 1017.35 1017.47 1017.66 1017.91 1018.21 1018.54 1018.89 1019.22 1019.53 1019.82 1020.06 1020.27 1020.45 1020.62 1020.78 1020.96 1021.15 1021.38 1021.63 1021.90 1022.19 1022.48 1022.76 1023.00 1023.21 1023.36 1023.47 1023.52 1023.53 1023.50 1023.45 1023.38 1023.30 1023.21 1023.13 1023.05 1022.96
1017.60 1017.47 1017.37 1017.31 1017.29 1017.33 1017.43 1017.58 1017.78 1018.03 1018.32 1018.63 1018.94 1019.25 1019.55 1019.81 1020.05 1020.25 1020.42 1020.57 1020.71 1020.85 1021.00 1021.17 1021.37 1021.59 1021.84 1022.11 1022.38 1022.65 1022.90 1023.13 1023.32 1023.48 1023.60 1023.68 1023.72 1023.72 1023.71 1023.66 1023.60 1023.53 1023.44 1023.34
1017.02 1016.97 1016.98 1017.05 1017.17 1017.34 1017.56 1017.82 1018.10 1018.40 1018.71 1019.02 1019.31 1019.58 1019.83 1020.05 1020.24 1020.41 1020.55 1020.68 1020.80 1020.93 1021.06 1021.22 1021.39 1021.59 1021.81 1022.05 1022.30 1022.56 1022.81 1023.06 1023.28 1023.48 1023.65 1023.78 1023.87 1023.93 1023.95 1023.94 1023.89 1023.82 1023.71 1023.59
1016.37 1016.43 1016.56 1016.77 1017.03 1017.34 1017.67 1018.02 1018.38 1018.72 1019.04 1019.34 1019.61 1019.85 1020.06 1020.25 1020.41 1020.55 1020.68 1020.80 1020.92 1021.05 1021.18 1021.32 1021.48 1021.66 1021.85 1022.06 1022.29 1022.53 1022.77 1023.01 1023.24 1023.46 1023.66 1023.83 1023.96 1024.05 1024.10 1024.10 1024.06 1023.99 1023.87 1023.73
1015.73 1015.89 1016.14 1016.48 1016.87 1017.29 1017.73 1018.16 1018.57 1018.95 1019.28 1019.57 1019.82 1020.03 1020.22 1020.38 1020.53 1020.66 1020.80 1020.93 1021.07 1021.20 1021.34 1021.49 1021.64 1021.79 1021.96 1022.14 1022.33 1022.53 1022.75 1022.97 1023.19 1023.41 1023.61 1023.79 1023.94 1024.05 1024.12 1024.13 1024.10 1024.02 1023.90 1023.75
1015.14 1015.39 1015.75 1016.19 1016.68 1017.20 1017.71 1018.20 1018.65 1019.05 1019.39 1019.67 1019.91 1020.11 1020.28 1020.44 1020.59 1020.74 1020.90 1021.05 1021.21 1021.37 1021.53 1021.68 1021.82 1021.96 1022.10 1022.24 1022.39 1022.55 1022.72 1022.90 1023.09 1023.29 1023.47 1023.65 1023.80 1023.91 1023.98 1024.01 1023.99 1023.92 1023.80 1023.65
1014.65 1014.98 1015.41 1015.92 1016.48 1017.06 1017.63 1018.15 1018.63 1019.03 1019.38 1019.66 1019.89 1020.09 1020.27 1020.43 1020.60 1020.78 1020.96 1021.15 1021.34 1021.52 1021.70 1021.86 1021.99 1022.12 1022.23 1022.33 1022.43 1022.53 1022.64 1022.77 1022.91 1023.06 1023.22 1023.37 1023.50 1023.61 1023.69 1023.73 1023.72 1023.67 1023.57 1023.44
1014.29 1014.66 1015.14 1015.70 1016.29 1016.90 1017.48 1018.03 1018.50 1018.92 1019.26 1019.55 1019.79 1019.99 1020.19 1020.37 1020.57 1020.77 1020.99 1021.21 1021.43 1021.64 1021.83 1021.99 1022.12 1022.22 1022.30 1022.35 1022.40 1022.44 1022.49 1022.55 1022.63 1022.73 1022.83 1022.95 1023.06 1023.16 1023.24 1023.29 1023.30 1023.28 1023.22 1023.12
1014.06 1014.46 1014.95 1015.52 1016.12 1016.73 1017.31 1017.85 1018.32 1018.74 1019.09 1019.38 1019.63 1019.85 1020.07 1020.29 1020.51 1020.74 1020.99 1021.24 1021.48 1021.70 1021.89 1022.05 1022.17 1022.24 1022.28 1022.29 1022.28 1022.26 1022.24 1022.23 1022.25 1022.28 1022.34 1022.41 1022.49 1022.58 1022.65 1022.72 1022.76 1022.77 1022.75 1022.69
1013.94 1014.34 1014.83 1015.38 1015.97 1016.56 1017.12 1017.65 1018.12 1018.53 1018.88 1019.19 1019.46 1019.70 1019.95 1020.19 1020.44 1020.70 1020.96 1021.23 1021.48 1021.70 1021.89 1022.04 1022.14 1022.18 1022.19 1022.15 1022.09 1022.01 1021.93 1021.85 1021.80 1021.77 1021.77 1021.80 1021.85 1021.92 1021.99 1022.07 1022.13 1022.17 1022.19 1022.18
1013.90 1014.30 1014.77 1015.30 1015.85 1016.41 1016.94 1017.44 1017.90 1018.31 1018.67 1018.99 1019.28 1019.56 1019.82 1020.09 1020.36 1020.64 1020.92 1021.19 1021.44 1021.65 1021.83 1021.96 1022.04 1022.06 1022.03 1021.95 1021.84 1021.72 1021.58 1021.45 1021.35 1021.26 1021.21 1021.20 1021.21 1021.26 1021.32 1021.39 1021.47 1021.53 1021.58 1021.59
1013.93 1014.31 1014.75 1015.24 1015.75 1016.26 1016.76 1017.23 1017.67 1018.08 1018.45 1018.78 1019.10 1019.40 1019.69 1019.98 1020.27 1020.56 1020.84 1021.10 1021.34 1021.55 1021.71 1021.82 1021.88 1021.88 1021.83 1021.73 1021.59 1021.43 1021.26 1021.09 1020.93 1020.81 1020.71 1020.65 1020.64 1020.65 1020.70 1020.76 1020.83 1020.90 1020.96 1020.98
1014.01 1014.36 1014.76 1015.20 1015.65 1016.11 1016.57 1017.01 1017.43 1017.82 1018.19 1018.54 1018.88 1019.20 1019.52 1019.82 1020.12 1020.41 1020.69 1020.95 1021.18 1021.37 1021.52 1021.62 1021.67 1021.66 1021.60 1021.49 1021.34 1021.17 1020.98 1020.79 1020.60 1020.44 1020.31 1020.22 1020.17 1020.15 1020.17 1020.20 1020.26 1020.31 1020.36 1020.38
1014.11 1014.42 1014.77 1015.14 1015.53 1015.93 1016.34 1016.74 1017.13 1017.51 1017.88 1018.24 1018.59 1018.93 1019.25 1019.57 1019.88 1020.17 1020.44 1020.69 1020.91 1021.10 1021.24 1021.34 1021.38 1021.38 1021.33 1021.23 1021.09 1020.93 1020.74 1020.55 1020.36 1020.18 1020.03 1019.90 1019.82 1019.77 1019.74 1019.75 1019.77 1019.79 1019.81 1019.80
1014.20 1014.47 1014.75 1015.05 1015.37 1015.70 1016.04 1016.40 1016.75 1017.11 1017.47 1017.83 1018.19 1018.53 1018.87 1019.19 1019.50 1019.79 1020.05 1020.30 1020.51 1020.69 1020.84 1020.94 1021.00 1021.02 1021.00 1020.93 1020.82 1020.69 1020.52 1020.34 1020.16 1019.98 1019.82 1019.67 1019.56 1019.47 1019.41 1019.37 1019.35 1019.33 1019.31 1019.27
1014.26 1014.46 1014.67 1014.90 1015.13 1015.39 1015.66 1015.96 1016.28 1016.61 1016.95 1017.30 1017.65 1017.99 1018.33 1018.65 1018.95 1019.24 1019.50 1019.73 1019.95 1020.13 1020.29 1020.41 1020.50 1020.55 1020.57 1020.54 1020.48 1020.39 1020.26 1020.12 1019.95 1019.79 1019.62 1019.46 1019.33 1019.21 1019.11 1019.03 1018.96 1018.90 1018.84 1018.76
1014.23 1014.36 1014.49 1014.63 1014.79 1014.97 1015.18 1015.42 1015.69 1015.99 1016.31 1016.64 1016.97 1017.31 1017.64 1017.95 1018.24 1018.52 1018.77 1019.00 1019.21 1019.40 1019.57 1019.72 1019.84 1019.93 1019.99 1020.02 1020.01 1019.97 1019.89 1019.79 1019.66 1019.51 1019.36 1019.20 1019.05 1018.91 1018.78 1018.66 1018.56 1018.46 1018.36 1018.25
Thickness
5682 5690 5692 5691 5693 5694 5687 5679 5668 5669 5669 5668 5666 5663 5658 5653 5646 5639 5631 5624 5617 5609 5602 5596 5589 5585 5580 5576 5572 5569 5565 5562 5560 5558 5557 5555 5554 5553 5552 5552 5551 5550 5550 5551
5676 5687 5689 5685 5688 5689 5686 5683 5676 5671 5665 5669 5664 5658 5651 5645 5640 5632 5625 5617 5610 5603 5596 5589 5583 5578 5573 5568 5564 5561 5558 5556 5553 5551 5549 5547 5546 5545 5545 5543 5542 5542 5542 5542
5660 5676 5679 5665 5675 5677 5676 5679 5675 5663 5661 5660 5654 5650 5644 5639 5634 5626 5619 5612 5604 5597 5590 5582 5576 5571 5565 5561 5557 5555 5552 5550 5547 5545 5543 5541 5540 5539 5537 5536 5535 5534 5534 5534
5654 5661 5649 5663 5682 5681 5675 5671 5673 5668 5662 5658 5652 5645 5640 5635 5628 5621 5614 5606 5598 5589 5581 5575 5569 5564 5559 5555 5552 5549 5546 5544 5542 5539 5537 5535 5533 5532 5531 5529 5527 5527 5526 5526
5646 5645 5652 5666 5676 5674 5666 5658 5664 5660 5654 5649 5645 5637 5630 5628 5623 5615 5607 5599 5591 5583 5576 5569 5564 5559 5554 5549 5547 5544 5541 5539 5537 5535 5532 5530 5528 5526 5525 5523 5522 5521 5520 5520
5648 5643 5642 5658 5677 5682 5669 5650 5659 5656 5648 5643 5638 5625 5621 5620 5615 5607 5599 5592 5584 5577 5570 5564 5559 5555 5550 5545 5542 5539 5536 5534 5532 5530 5528 5525 5523 5521 5520 5519 5517 5516 5515 5515
5647 5643 5649 5668 5678 5677 5652 5648 5657 5653 5647 5641 5635 5629 5623 5615 5607 5600 5593 5586 5580 5572 5566 5560 5556 5552 5546 5542 5538 5536 5534 5531 5528 5526 5524 5522 5519 5518 5516 5515 5513 5512 5511 5511
5645 5640 5645 5670 5671 5660 5655 5659 5655 5648 5643 5636 5630 5623 5617 5609 5601 5593 5586 5580 5575 5568 5561 5557 5553 5548 5543 5538 5536 5533 5531 5528 5526 5523 5522 5520 5516 5514 5513 5511 5510 5508 5507 5507
5650 5648 5659 5666 5666 5665 5662 5655 5649 5643 5637 5631 5624 5617 5610 5602 5595 5588 5582 5576 5570 5564 5558 5554 5550 5546 5541 5537 5535 5532 5528 5525 5523 5521 5519 5517 5515 5513 5510 5509 5507 5506 5505 5504
5652 5656 5661 5663 5664 5662 5660 5653 5647 5640 5633 5628 5620 5613 5605 5597 5590 5583 5578 5572 5567 5561 5556 5551 5548 5544 5541 5537 5534 5530 5527 5524 5521 5519 5517 5515 5514 5512 5510 5508 5507 5506 5505 5504
5650 5655 5657 5658 5658 5656 5653 5649 5642 5635 5630 5624 5617 5608 5601 5594 5587 5581 5576 5571 5566 5560 5555 5551 5548 5544 5541 5538 5534 5530 5526 5524 5521 5519 5516 5514 5512 5511 5511 5510 5509 5509 5508 5507
5649 5656 5653 5652 5656 5654 5648 5643 5638 5631 5624 5618 5613 5605 5599 5591 5586 5580 5575 5570 5565 5560 5556 5552 5548 5545 5542 5539 5535 5531 5527 5525 5522 5519 5517 5515 5513 5512 5513 5513 5514 5513 5513 5512
5665 5665 5659 5657 5655 5653 5646 5641 5636 5630 5623 5615 5609 5604 5597 5590 5585 5580 5576 5571 5566 5562 5558 5554 5550 5546 5544 5541 5538 5534 5530 5528 5525 5523 5521 5518 5516 5515 5514 5515 5516 5517 5516 5516
5669 5664 5655 5653 5650 5649 5645 5639 5634 5627 5621 5615 5608 5602 5596 5590 5585 5581 5577 5573 5569 5564 5560 5556 5552 5549 5547 5545 5542 5538 5535 5532 5530 5527 5526 5524 5522 5521 5519 5518 5518 5519 5521 5521
5666 5663 5657 5654 5649 5645 5641 5635 5628 5622 5616 5611 5606 5601 5596 5591 5586 5583 5579 5575 5571 5566 5562 5559 5555 5553 5551 5549 5545 5542 5539 5536 5535 5533 5531 5530 5529 5527 5526 5525 5523 5523 5524 5526
5663 5660 5656 5651 5645 5641 5636 5631 5626 5620 5616 5611 5606 5602 5598 5593 5588 5584 5581 5577 5572 5567 5565 5562 5559 5557 5555 5553 5549 5546 5543 5543 5541 5538 5537 5536 5535 5534 5533 5532 5530 5530 5530 5531
5658 5653 5650 5646 5643 5639 5635 5631 5627 5622 5617 5612 5608 5604 5599 5594 5589 5585 5582 5579 5575 5572 5569 5566 5563 5562 5560 5557 5554 5551 5548 5547 5547 5545 5543 5542 5542 5541 5540 5539 5538 5538 5539 5541
5664 5659 5655 5651 5646 5640 5636 5633 5629 5624 5619 5615 5611 5605 5600 5595 5591 5587 5584 5581 5577 5574 5572 5570 5568 5566 5564 5562 5559 5556 5554 5552 5551 5550 5550 5549 5549 5548 5548 5547 5547 5547 5548 5549
5664 5660 5656 5652 5648 5643 5638 5634 5630 5626 5622 5618 5612 5607 5603 5599 5595 5591 5587 5583 5579 5576 5575 5575 5573 5570 5568 5566 5564 5561 5559 5558 5557 5557 5556 5557 5556 5556 5555 5555 5555 5556 5556 5556
5663 5660 5657 5652 5649 5644 5639 5635 5631 5627 5624 5619 5614 5609 5605 5602 5598 5594 5590 5587 5585 5583 5581 5579 5577 5574 5573 5571 5569 5567 5566 5564 5563 5563 5563 5562 5562 5563 5563 5563 5564 5564 5564 5563
5660 5658 5655 5651 5648 5645 5641 5637 5632 5628 5625 5622 5617 5612 5609 5605 5602 5598 5593 5590 5590 5589 5586 5584 5581 5579 5577 5576 5575 5573 5572 5571 5570 5569 5569 5569 5569 5569 5570 5570 5571 5571 5571 5571
5657 5655 5652 5649 5646 5642 5640 5637 5634 5631 5627 5623 5620 5616 5611 5607 5604 5601 5599 5597 5596 5593 5590 5588 5586 5585 5583 5581 5579 5578 5578 5577 5577 5576 5575 5575 5575 5575 5576 5576 5577 5577 5578 5577
5654 5652 5650 5647 5644 5641 5640 5637 5635 5632 5629 5626 5622 5618 5615 5612 5609 5604 5601 5601 5600 5597 5595 5593 5592 5590 5588 5585 5584 5583 5583 5583 5583 5582 5582 5581 5581 5582 5582 5582 5583 5583 5583 5583
5651 5649 5647 5646 5644 5640 5637 5636 5635 5634 5631 5629 5626 5623 5619 5614 5611 5611 5610 5608 5605 5602 5600 5598 5596 5594 5592 5590 5589 5589 5588 5588 5588 5588 5588 5588 5588 5588 5588 5588 5588 5588 5588 5589
5649 5647 5645 5643 5639 5638 5637 5636 5634 5632 5631 5628 5627 5625 5623 5620 5617 5615 5613 5611 5608 5605 5604 5603 5601 5599 5596 5595 5594 5594 5594 5594 5593 5593 5593 5593 5593 5593 5593 5593 5593 5593 5593 5593
5644 5643 5641 5641 5639 5637 5636 5634 5632 5631 5629 5627 5626 5625 5624 5622 5621 5619 5616 5614 5612 5610 5608 5607 5605 5603 5601 5600 5600 5600 5599 5599 5599 5598 5598 5598 5598 5598 5598 5598 5599 5598 5598 5598
5641 5640 5638 5637 5637 5637 5636 5634 5631 5630 5629 5628 5626 5626 5625 5624 5622 5621 5619 5617 5615 5613 5611 5610 5609 5608 5606 5606 5605 5605 5604 5604 5604 5603 5603 5603 5602 5603 5603 5603 5603 5603 5602 5602